RH
47 44 46 47 46 40 37 35 36 35 37 36 34 28 30 30 28 23 25 31 18 14 16 15 14 20 32 96 88 96 98 97 85 88 98 96 94 97 97 97 92 84 67 57
41 37 38 44 48 51 53 48 48 46 39 29 23 26 25 22 20 23 27 18 13 14 14 15 15 30 68 87 94 90 99 98 98 98 96 88 97 96 97 98 95 82 81 66
43 40 38 38 42 57 55 51 44 44 38 25 23 23 21 18 17 16 14 12 11 11 12 21 30 75 70 85 94 95 97 95 97 94 100 95 93 96 98 99 92 92 87 62
49 44 42 38 35 44 54 52 40 39 30 23 20 18 16 16 15 15 15 13 15 21 14 60 65 62 67 71 90 93 96 95 98 98 100 100 99 94 94 96 100 96 75 86
53 48 43 40 41 45 43 39 37 35 30 28 26 23 17 19 18 18 22 18 14 10 11 27 40 36 38 42 60 73 87 89 98 89 100 100 84 73 81 96 97 96 94 88
51 49 49 46 43 39 35 36 36 37 34 32 27 22 21 19 17 13 13 12 10 10 11 11 11 10 9 10 31 50 68 92 88 67 85 87 64 84 86 90 100 97 97 94
59 61 70 77 76 75 64 43 46 42 35 31 27 28 24 21 17 13 13 13 12 20 14 12 11 10 12 12 9 18 45 82 86 69 93 84 75 67 78 86 93 100 97 93
52 55 60 78 86 77 70 61 47 41 36 36 34 32 28 21 18 14 14 15 15 20 14 14 14 12 9 9 10 11 15 24 42 95 84 73 66 84 99 99 86 96 100 98
38 44 45 46 50 57 52 38 48 48 43 42 41 35 29 21 18 16 14 14 32 32 17 14 11 9 8 8 8 24 45 57 74 60 83 78 54 68 100 100 78 99 98 100
24 30 36 40 41 40 38 35 42 50 46 45 40 37 30 21 18 17 14 13 14 22 17 15 12 10 12 11 14 18 52 65 75 84 95 80 63 88 96 93 94 92 100 99
24 27 28 31 35 38 36 37 48 48 41 41 38 32 28 24 19 17 15 15 15 16 19 17 13 12 14 18 37 25 52 65 70 99 100 89 92 89 97 98 100 100 100 99
26 31 37 35 33 44 41 36 46 50 46 41 40 36 31 24 19 16 15 14 18 19 19 19 17 14 20 74 60 48 61 92 99 100 100 100 97 98 100 100 100 100 99 95
47 55 52 54 61 56 52 40 50 49 47 42 39 36 32 28 19 16 15 13 17 18 20 21 23 26 49 40 50 74 85 99 99 100 100 100 100 100 100 100 99 98 93 91
60 61 66 72 69 63 55 50 46 35 38 38 33 33 27 22 18 14 14 13 17 21 25 26 20 18 15 34 77 98 100 100 100 99 100 99 100 100 99 98 96 89 97 86
28 34 43 48 30 22 24 34 31 33 43 36 30 28 25 20 16 13 13 13 21 25 30 28 22 14 43 63 94 88 100 100 99 98 99 100 100 98 99 96 91 95 50 10
56 42 55 57 41 52 60 64 69 82 48 38 34 30 27 21 16 13 15 18 18 25 30 28 22 14 35 53 84 89 99 95 99 99 99 98 99 98 95 97 90 14 12 16
100 100 100 100 100 100 100 68 48 62 78 54 37 34 25 19 17 17 20 24 29 32 28 21 17 14 22 47 74 99 100 98 100 99 99 97 96 99 99 47 9 13 18 23
100 100 100 100 100 100 100 89 92 100 100 93 48 32 37 29 25 29 32 34 32 26 19 16 13 14 14 31 73 100 100 99 98 100 94 95 100 93 13 9 13 19 26 28
100 100 100 100 100 100 94 99 100 100 100 94 55 35 49 49 42 43 42 42 30 21 19 16 14 15 28 54 87 100 96 99 96 87 97 99 60 7 9 14 22 28 28 26
100 100 100 100 98 100 100 100 100 100 98 90 66 56 46 46 49 48 52 42 27 23 22 18 16 30 38 56 95 98 98 95 83 95 100 23 7 11 16 26 29 28 27 38
100 99 98 93 100 100 100 100 100 94 83 68 67 66 59 58 63 62 52 37 29 25 21 21 26 42 68 98 99 99 98 85 97 83 7 8 13 20 28 28 27 33 41 35
95 91 97 97 100 100 100 99 91 78 64 54 54 57 59 54 51 48 43 35 31 22 19 23 42 65 100 99 98 94 77 97 38 6 10 14 24 27 25 29 37 39 34 38
100 100 100 100 99 100 92 81 66 63 48 45 44 42 36 31 31 31 26 22 17 17 28 42 65 100 100 96 92 97 62 7 7 12 18 26 23 24 31 39 37 34 38 41
100 100 96 97 99 91 68 53 59 54 48 56 55 48 41 34 28 18 17 16 14 18 38 90 100 100 100 99 76 8 6 9 14 22 26 22 24 34 39 37 35 37 41 44
82 92 90 85 96 58 55 56 60 53 58 48 40 37 36 30 22 20 15 10 14 41 98 100 100 100 95 58 7 7 12 18 24 24 23 27 38 38 36 34 38 38 41 47
99 90 76 65 62 72 46 46 46 51 56 46 55 54 32 23 22 14 12 21 48 95 100 100 100 89 23 6 9 15 20 24 23 24 30 37 36 35 33 36 38 38 42 48
77 83 76 73 70 65 60 64 67 68 52 51 75 58 39 24 19 18 45 80 100 100 100 100 45 6 8 12 17 22 23 24 28 30 34 33 32 32 34 37 38 38 42 48
Wind_Speed
65 64 62 63 61 61 58 56 55 52 49 51 52 51 49 45 43 37 38 34 38 37 37 39 39 37 32 29 23 25 27 34 37 38 39 41 43 41 41 43 47 52 54 64
66 64 63 63 63 61 59 58 55 51 51 52 49 47 44 43 41 36 38 38 38 39 37 41 40 38 33 33 27 27 28 31 33 34 38 42 45 45 47 48 49 48 55 61
68 66 65 64 63 62 60 60 59 56 55 51 47 45 43 44 42 38 40 39 36 36 38 36 38 36 35 35 37 32 31 37 37 42 43 40 44 48 51 51 54 50 55 59
71 68 65 64 63 63 62 62 60 57 54 50 47 47 44 44 45 42 39 38 35 32 35 34 35 34 31 32 35 39 37 34 35 28 42 43 51 49 47 49 48 52 55 58
69 69 67 64 64 63 63 61 60 57 54 51 49 45 46 45 43 41 36 34 30 33 35 38 41 43 45 45 43 35 40 36 35 36 42 49 47 48 53 54 55 59 58 57
71 69 67 67 66 66 62 61 60 58 56 53 50 49 48 44 41 40 37 35 37 38 33 38 40 41 41 47 50 50 44 46 44 49 51 44 45 51 55 51 52 51 51 54
75 73 72 71 71 68 65 58 58 58 55 53 50 49 48 47 43 42 40 39 41 34 40 41 41 42 41 41 46 50 49 50 52 52 48 53 50 51 48 45 43 47 52 51
78 76 73 72 72 70 66 65 62 59 56 51 50 50 49 50 48 45 44 39 41 41 40 41 42 42 44 43 45 46 45 47 51 50 52 52 52 54 51 46 46 46 47 47
80 79 75 71 70 69 67 62 62 61 57 55 52 52 52 51 51 49 47 44 39 41 42 40 43 44 43 45 47 41 41 41 46 51 49 49 53 60 50 42 45 44 45 48
76 76 76 72 68 68 68 64 62 62 60 59 58 56 55 53 52 51 48 46 45 44 43 43 44 43 42 46 46 41 36 35 39 41 45 46 53 49 47 45 45 44 45 50
76 75 72 70 67 66 65 63 62 60 60 59 57 55 54 54 54 52 49 47 48 47 45 44 44 41 42 46 44 35 35 40 39 40 42 44 45 46 46 46 45 45 49 53
74 75 73 71 67 66 64 62 61 61 60 58 56 55 54 53 54 54 54 50 49 48 44 42 41 39 41 30 30 29 39 37 34 34 34 39 44 44 45 47 48 51 54 55
66 67 71 69 68 67 65 61 61 62 60 59 57 55 56 55 55 56 56 52 49 47 43 41 40 40 36 34 38 35 33 38 37 35 36 48 44 47 47 47 50 53 55 53
61 63 62 62 63 63 65 64 61 62 60 59 56 55 55 54 56 56 58 53 49 46 45 43 41 38 34 37 35 31 32 41 40 37 39 43 44 45 46 49 51 52 51 51
56 58 58 59 59 60 62 61 60 60 59 58 56 54 54 53 56 59 56 53 50 48 46 44 40 37 35 36 40 32 32 33 42 41 41 41 44 46 47 49 50 49 46 46
54 54 54 55 56 59 59 61 61 59 54 56 57 55 54 55 56 53 53 52 51 48 45 44 43 42 39 43 35 35 36 35 39 38 38 43 45 44 45 45 44 41 44 48
52 52 52 53 55 55 57 57 54 54 57 59 60 59 58 55 54 54 52 50 48 45 44 43 37 39 40 43 38 38 35 36 38 40 44 46 43 41 41 39 39 43 47 51
51 52 52 53 53 55 56 51 50 52 56 60 62 59 57 54 52 50 47 46 41 39 40 37 35 40 42 47 43 38 39 40 40 43 44 40 36 38 36 38 42 46 49 54
48 48 48 49 54 57 53 51 49 49 52 59 56 55 53 53 50 49 46 42 40 42 40 40 41 42 44 44 42 45 42 39 40 37 36 35 34 34 38 41 45 48 52 56
52 53 56 56 57 54 51 51 51 50 53 56 55 54 52 50 49 47 43 43 45 43 42 43 46 43 39 41 43 40 35 32 31 31 32 30 32 35 39 43 45 51 54 60
64 66 62 59 60 59 55 50 51 56 55 55 52 50 49 47 45 44 44 44 45 45 45 45 47 35 31 35 33 36 34 29 28 28 27 28 32 37 39 44 48 52 56 57
63 57 59 61 63 68 64 62 62 56 52 48 45 44 44 43 43 44 44 46 48 48 47 46 41 25 29 33 26 24 24 24 24 23 25 30 34 37 41 45 47 51 51 51
56 60 60 60 63 66 68 68 60 58 53 50 46 45 44 41 42 43 46 51 50 49 47 41 22 18 20 20 19 20 19 19 20 23 28 31 34 39 42 44 47 46 49 50
63 59 61 60 59 64 62 57 50 49 47 44 45 48 47 47 47 51 56 56 53 51 39 17 12 21 22 20 17 16 16 18 21 25 28 31 35 38 40 42 42 46 48 49
55 53 55 54 56 40 31 29 29 28 28 37 42 52 54 52 56 57 54 54 53 35 13 17 24 21 20 18 14 14 16 20 23 25 28 32 34 37 38 38 41 45 46 47
48 41 39 34 33 36 35 34 35 35 35 40 40 42 54 61 65 64 61 52 31 19 18 18 16 16 17 13 13 15 19 21 23 25 28 30 33 34 34 37 41 44 46 46
38 36 35 35 34 34 34 30 30 33 38 41 38 43 49 54 55 50 37 19 17 19 19 18 16 15 12 12 14 18 20 22 23 25 27 29 30 32 34 38 41 44 46 47
Wind_Direction
232 233 233 235 235 237 239 239 239 239 241 244 245 246 251 251 252 251 253 249 256 255 256 255 259 267 262 261 261 258 272 265 267 260 263 266 270 274 267 279 286 287 296 293
232 232 233 233 234 235 237 239 240 240 239 241 244 246 247 251 249 249 250 254 251 255 252 256 257 260 260 253 254 258 266 262 270 264 275 280 267 270 279 279 282 289 292 294
229 231 232 233 233 234 234 235 235 234 235 237 240 241 243 246 247 245 246 251 250 251 252 252 261 257 260 259 258 265 264 266 266 270 274 279 274 279 286 287 290 295 292 300
230 230 230 231 232 233 233 233 235 235 237 240 241 242 243 246 251 247 244 248 250 248 248 248 253 256 259 269 266 263 270 274 265 276 266 280 289 288 289 290 292 290 297 298
230 231 232 231 231 230 232 233 235 235 237 237 237 240 243 247 247 245 244 249 247 250 248 246 251 256 257 255 260 266 261 266 265 272 272 272 286 289 289 290 288 291 294 298
229 231 231 232 233 235 235 234 234 233 233 234 236 240 243 243 243 243 242 246 246 249 251 251 252 255 257 258 258 262 263 262 266 273 274 273 283 299 293 288 288 291 294 301
229 229 232 234 235 237 236 236 235 236 236 237 238 238 239 239 239 239 238 236 243 243 245 249 254 258 262 262 263 264 264 262 267 276 275 278 291 303 303 298 295 293 297 299
230 230 229 231 234 234 234 233 234 235 234 234 234 236 237 236 237 235 237 235 240 244 249 252 256 261 263 265 267 267 272 277 273 270 273 283 289 300 309 306 296 297 296 292
229 230 230 229 229 232 231 230 230 231 231 231 230 232 233 234 235 233 232 233 234 241 250 253 255 259 264 266 271 271 274 280 273 271 279 289 290 294 303 299 290 292 290 295
224 227 228 228 227 227 229 227 226 227 228 228 227 228 230 230 231 231 232 233 238 240 246 251 254 258 266 271 277 282 278 282 274 276 282 291 284 295 298 295 293 292 297 299
216 217 220 222 222 222 225 226 223 225 228 228 229 228 228 229 230 230 232 236 236 238 244 250 257 262 269 275 276 275 273 273 274 282 293 288 289 293 293 292 292 295 300 303
217 216 214 215 216 215 219 222 219 221 225 227 226 227 228 228 229 230 232 234 234 238 245 253 257 262 271 280 278 258 262 268 284 295 293 294 295 293 293 293 294 297 300 305
212 214 214 213 212 211 215 218 215 217 222 225 225 226 227 228 228 229 231 233 234 238 247 252 256 261 262 282 274 272 272 285 294 288 297 295 289 290 291 294 296 299 305 306
211 209 210 211 210 209 210 212 214 214 218 223 224 225 226 225 228 229 230 233 234 238 246 250 252 259 270 275 274 278 283 291 292 287 287 285 289 290 292 295 300 306 301 305
205 205 204 205 205 205 208 208 211 214 216 219 219 221 223 224 225 227 228 231 233 237 244 250 254 256 263 278 272 276 288 292 286 285 286 289 293 293 294 301 302 300 304 305
202 201 200 200 200 203 205 207 208 210 213 216 217 217 216 217 221 221 223 226 230 238 243 249 252 251 257 274 270 277 280 278 283 291 296 295 294 296 301 297 300 301 306 308
198 199 198 199 199 202 208 212 207 208 209 213 215 212 209 212 214 217 220 223 230 236 242 247 246 256 256 266 267 279 277 282 288 292 298 297 296 297 295 299 303 307 307 308
194 194 194 195 195 198 205 208 207 208 211 213 212 209 208 208 210 218 221 228 232 232 238 239 248 254 256 261 271 273 279 281 287 296 298 296 293 295 299 303 306 308 310 314
187 185 181 175 185 190 198 203 204 207 213 213 211 209 208 209 212 216 222 227 229 231 238 243 252 246 251 265 271 280 279 285 287 294 293 290 296 300 304 308 308 311 314 312
168 164 174 185 186 189 194 204 208 209 212 210 208 208 209 210 214 217 223 226 229 234 240 251 249 244 261 271 275 280 284 284 293 289 287 294 298 305 307 306 313 313 310 308
173 178 180 184 188 185 192 197 210 209 207 205 205 206 208 208 214 219 225 227 232 241 250 250 243 246 266 277 285 279 281 287 286 288 291 299 304 304 307 313 310 307 307 306
180 182 182 184 187 192 198 202 211 208 205 205 206 208 210 213 215 220 226 232 239 245 244 245 242 254 274 284 282 274 276 279 281 289 299 303 302 309 311 306 307 307 307 317
177 176 177 184 188 194 198 203 205 207 207 208 208 212 215 216 220 225 230 235 240 244 240 237 250 272 292 270 264 267 273 279 290 298 298 301 309 306 304 308 307 311 321 319
169 183 183 186 194 199 205 207 211 216 213 210 212 215 219 223 227 230 234 240 245 241 235 245 267 287 278 249 262 271 277 287 293 293 301 307 304 303 308 307 316 322 321 321
177 180 186 187 196 202 206 202 206 207 208 214 218 221 222 221 222 228 236 242 236 223 217 263 278 273 243 262 267 272 282 288 291 301 303 301 304 308 308 318 322 323 324 323
184 194 194 193 195 199 208 215 216 214 210 204 204 210 215 217 223 225 224 220 212 222 244 272 259 251 252 246 259 275 284 289 296 297 300 305 307 309 320 324 325 327 327 327
185 192 199 204 204 201 195 192 195 197 195 194 192 200 207 208 209 208 204 207 226 245 271 246 233 234 240 252 272 279 284 287 294 301 304 307 312 320 327 325 329 330 331 331